ECMWFNIL_500_avort_021.txt.gz
Vorticity
8 6 6 6 7 7 5 4 4 4 5 6 6 4 4 5 6 8 9 9 9 8 7 7 8 8 8 8 6 7 7 6 6 7 7 7 5 4 4 4 5 5
5 2 3 5 5 5 5 6 8 8 9 10 9 6 4 3 4 6 8 7 7 7 7 7 9 8 7 6 6 5 5 6 7 7 8 8 6 6 5 4 5 6
1 2 4 4 5 7 9 9 7 8 10 10 9 9 5 2 5 7 7 3 1 3 5 5 6 7 9 9 8 6 5 5 6 7 8 8 7 5 5 5 5 7
2 4 6 5 6 8 9 8 8 8 8 9 10 10 6 5 6 6 5 2 -0 2 6 5 3 3 7 10 9 6 5 5 6 7 8 8 7 5 4 5 6 6
4 5 5 4 3 4 5 6 7 7 8 9 9 9 7 4 4 8 10 8 4 3 6 8 8 5 4 5 7 6 5 6 6 7 8 8 5 5 4 5 6 6
5 3 3 4 3 2 3 3 5 8 9 9 7 8 8 8 7 7 12 18 12 3 3 8 10 11 10 4 1 5 6 6 7 7 8 7 4 5 6 6 7 7
3 3 4 4 3 3 5 6 7 7 8 8 7 8 11 14 12 6 11 21 17 7 6 7 7 15 22 13 3 5 6 4 8 9 6 5 5 5 7 6 7 7
6 6 5 5 6 5 6 8 9 9 9 9 7 8 10 9 8 12 15 13 8 13 20 16 13 21 25 16 6 7 8 7 10 10 6 5 8 8 7 6 6 8
5 2 2 7 8 6 7 10 10 8 7 6 4 5 5 5 11 18 19 14 8 17 30 28 22 20 13 7 7 8 8 8 9 9 8 8 9 9 8 7 6 8
-1 -3 4 9 8 8 9 9 7 4 4 7 7 6 7 16 21 14 12 15 10 20 40 35 18 14 10 6 9 10 6 6 8 10 12 11 9 8 7 7 6 5
-2 1 7 7 8 8 8 10 10 7 6 8 8 9 15 24 22 17 21 17 13 35 51 29 4 5 12 12 13 12 4 -1 5 12 14 10 8 8 7 5 3 2
4 7 6 7 10 6 6 10 8 8 10 10 6 7 17 19 8 19 36 21 18 43 36 6 -3 2 8 14 16 14 2 -11 -6 10 14 9 7 8 6 4 2 2
5 5 3 7 8 6 10 8 4 8 7 7 10 7 17 19 -10 -6 29 23 17 30 11 -9 -2 2 8 16 15 17 8 -9 -2 15 14 8 7 7 4 2 2 2
3 5 8 9 8 12 14 6 8 10 0 8 17 -5 8 34 -6 -29 15 27 11 11 2 -6 -2 -1 9 15 12 19 15 6 16 21 11 6 6 5 3 2 3 4
-1 3 9 7 10 16 11 8 14 9 -0 15 17 -6 19 60 22 -19 11 28 11 6 3 -3 -1 1 6 7 7 14 15 17 22 14 6 6 4 2 1 -0 4 7
-3 1 4 3 11 13 8 14 15 8 6 3 6 25 44 42 15 1 17 21 11 7 4 2 7 7 5 5 5 9 14 17 16 9 7 6 2 1 0 4 11 11
-1 4 6 6 12 10 8 11 5 18 24 -7 1 44 26 -7 8 22 17 16 13 7 4 7 13 11 8 8 6 9 15 14 11 11 7 5 5 -2 -4 13 21 9
-2 1 1 5 13 12 11 5 0 23 24 -2 29 50 -10 -24 25 25 6 19 20 7 6 11 16 14 8 8 9 13 15 11 11 10 5 7 4 -11 -5 18 15 0
-1 -1 -2 4 12 14 15 7 0 11 10 21 65 44 -28 -14 32 15 6 23 16 7 9 11 17 16 10 11 14 14 13 10 7 5 4 3 -6 -4 20 25 1 -4
1 2 2 5 8 14 19 10 -0 6 15 31 40 0 -28 7 26 10 14 21 12 10 9 11 19 17 12 15 14 11 11 8 5 6 4 -4 -3 24 40 10 -18 -5
4 4 6 8 8 13 19 10 0 8 19 21 8 -10 -1 19 17 12 18 17 12 9 5 15 21 12 11 14 9 7 8 7 9 10 3 -4 9 34 22 -22 -33 -9
3 4 11 14 10 13 17 7 -1 7 15 13 9 7 11 14 14 19 19 15 13 6 7 18 15 7 12 10 3 6 8 8 10 7 1 2 19 33 11 -26 -29 -10
4 9 18 17 10 13 15 3 -1 10 14 11 10 8 6 10 17 21 21 21 16 8 13 19 12 10 12 6 5 8 2 0 4 4 5 9 22 34 19 -11 -17 -2
16 17 18 15 10 12 10 2 4 13 11 7 8 5 4 11 19 23 26 24 16 13 21 20 12 11 9 6 10 3 -8 -4 6 9 13 16 22 24 10 -7 -5 7
25 20 15 12 10 10 8 5 8 11 9 8 7 5 9 19 23 23 23 18 12 14 20 15 10 10 8 8 8 -0 -5 3 7 4 8 16 17 7 -3 -3 5 9
23 17 12 10 8 8 8 7 9 9 9 8 6 7 14 19 21 23 22 12 3 8 18 16 8 6 9 13 13 3 -3 0 4 4 4 6 4 -0 2 8 8 7

ECMWFNIL_500_avort_024.txt.gz
Vorticity
11 9 8 4 2 3 4 5 6 7 9 8 6 6 6 5 5 5 4 4 4 4 5 6 6 3 1 2 5 7 6 6 9 10 7 7 8 8 7 7 8 8
10 8 5 2 1 4 5 5 5 6 7 6 6 6 5 6 7 5 5 6 6 4 4 6 7 7 8 7 5 5 6 6 7 10 10 9 8 8 7 8 8 9
10 7 3 2 3 5 4 3 3 3 3 3 4 5 7 9 9 6 8 10 8 6 6 6 5 4 5 10 12 8 5 7 8 8 7 6 6 7 8 8 9 9
9 4 2 4 4 4 3 3 3 3 3 4 5 8 11 10 9 9 9 10 11 10 9 9 8 7 8 13 18 15 7 7 10 10 6 3 3 6 8 8 9 8
6 3 4 4 3 4 3 4 5 5 7 8 7 9 9 5 5 6 5 5 3 2 8 12 11 14 15 12 16 24 21 11 9 16 16 8 2 4 8 8 9 8
4 3 4 3 3 4 3 4 6 6 7 8 10 12 9 4 2 1 5 6 4 8 14 12 10 15 13 11 19 31 31 15 8 17 21 11 3 5 8 8 9 9
4 4 4 4 4 2 1 4 4 3 7 8 9 10 8 9 6 2 4 8 11 16 12 6 13 14 6 13 28 26 19 13 9 13 17 10 5 6 8 11 12 10
4 4 4 4 3 -2 -1 6 2 -1 5 7 7 9 9 9 9 7 6 8 13 12 8 11 19 17 12 21 28 16 9 12 10 10 12 6 4 8 8 10 11 9
2 4 4 3 3 -1 1 9 5 -1 3 8 9 11 10 5 7 10 6 8 16 12 12 22 21 23 27 19 11 8 6 10 10 9 10 5 5 10 7 5 8 8
3 4 5 5 7 5 5 9 8 6 7 10 11 10 8 4 5 8 5 10 17 7 7 23 24 25 25 6 2 11 3 1 9 10 9 8 9 12 7 -1 -2 3
7 7 8 8 7 5 6 7 7 6 5 10 15 10 5 5 5 5 7 13 15 -2 -13 3 18 20 16 6 6 9 -3 -5 6 11 10 10 11 14 10 -1 -2 9
10 9 7 5 2 0 4 7 7 6 6 14 22 14 4 8 9 3 2 13 29 27 0 -9 7 15 11 11 10 5 -1 -6 1 11 13 10 11 14 15 12 15 20
10 9 6 3 1 -0 1 5 5 4 7 12 16 12 2 4 10 4 7 20 39 54 34 5 11 18 9 9 9 5 3 -5 -4 9 9 6 11 14 15 19 18 15
6 7 7 3 2 1 -0 3 2 4 12 7 -1 2 1 5 15 11 18 20 -2 0 21 22 21 22 11 8 7 5 8 1 0 9 5 1 9 12 14 17 12 8
3 4 4 2 2 -0 -2 2 4 9 25 22 6 9 11 12 16 9 21 26 -24 -47 0 33 28 21 13 9 8 7 9 8 7 12 7 3 10 11 11 12 7 7
5 4 4 1 -2 -5 -6 1 4 5 21 25 14 15 16 10 15 20 36 47 8 -22 6 30 25 20 11 6 10 7 7 11 12 11 8 6 10 10 9 9 6 7
8 7 8 4 -2 -5 -4 1 4 1 9 15 10 13 13 6 15 25 22 22 15 7 14 17 17 19 9 4 11 7 5 11 12 9 8 6 8 9 7 8 7 8
6 5 8 6 0 -2 -2 0 4 4 8 14 12 11 9 5 13 15 1 -0 11 14 13 11 14 17 11 8 10 5 4 10 10 9 9 7 8 8 6 7 7 6
4 2 3 4 2 1 0 2 5 9 12 15 13 10 7 8 15 12 4 6 12 12 12 14 14 14 11 8 8 4 5 9 10 11 11 7 7 7 5 7 6 5
1 0 1 3 4 3 2 4 6 11 17 16 13 12 10 10 14 12 9 10 10 10 11 13 16 16 9 6 8 6 6 12 17 15 7 3 4 6 6 6 4 6
1 1 1 2 5 4 4 6 7 12 20 17 11 12 12 11 12 12 13 12 10 11 12 15 20 16 8 8 9 8 13 20 19 9 1 2 6 7 7 5 5 8
2 1 2 3 4 4 5 9 11 16 21 15 9 12 12 9 10 12 12 9 8 14 19 19 17 13 11 12 9 12 21 21 9 1 1 4 5 7 9 4 2 7
2 -1 0 2 3 4 9 16 20 21 19 11 7 10 10 8 10 12 10 8 9 16 21 19 16 15 15 11 10 20 24 11 -1 1 6 5 5 9 9 -1 -5 4
0 -4 -2 1 4 8 14 22 24 22 17 10 7 10 11 11 12 11 8 7 10 18 26 27 21 16 13 12 17 22 15 2 -1 4 8 8 11 13 11 4 1 6
-1 -5 -3 2 10 16 18 22 22 17 13 10 9 12 14 12 11 9 6 7 14 26 33 30 19 9 7 9 13 13 6 3 6 8 7 9 13 15 12 8 6 4
1 -6 -2 8 17 19 18 18 15 10 8 10 11 13 14 10 7 7 4 9 22 29 25 20 16 9 3 1 3 3 1 2 8 11 11 10 11 10 6 3 5 3

ECMWFNIL_500_avort_030.txt.gz
Vorticity
7 6 4 4 6 6 7 9 10 9 6 3 2 3 5 5 6 7 7 7 6 7 9 8 8 6 5 6 5 4 6 8 9 9 12 15 16 13 5 6 14 18
6 5 3 3 4 5 7 10 10 7 4 3 3 5 7 6 5 5 4 5 6 7 9 8 7 4 4 6 5 4 6 8 8 8 9 15 24 23 9 9 22 21
4 3 2 1 3 6 8 10 9 7 4 3 5 7 6 4 4 3 2 3 5 8 10 8 5 4 6 7 4 3 5 8 10 7 6 12 24 27 13 5 15 17
6 4 1 2 6 8 8 9 9 7 5 5 8 8 3 2 5 5 5 5 5 9 10 7 6 6 8 7 4 3 2 5 11 9 4 7 14 20 17 6 2 8
9 7 5 6 9 10 9 10 9 6 6 7 7 5 3 5 7 7 7 7 6 9 9 7 8 7 6 6 6 6 3 4 11 8 2 5 8 10 15 13 3 -1
14 12 12 12 13 12 10 9 8 6 8 8 5 6 7 7 7 6 7 7 6 8 9 7 7 5 4 6 8 9 9 12 15 8 -1 -2 3 4 5 11 9 3
16 16 16 15 14 13 10 7 7 8 8 6 4 6 8 7 6 6 6 7 8 9 9 7 5 4 6 10 12 10 10 20 25 12 -5 -9 -3 3 3 5 8 8
13 14 15 14 11 9 7 7 7 7 5 3 4 5 5 5 6 6 5 7 8 7 8 7 5 6 8 10 11 9 9 22 32 18 -1 -4 2 6 6 7 11 12
10 12 10 9 7 6 7 7 6 6 6 7 8 6 3 1 2 3 3 4 6 5 5 6 6 6 8 9 9 10 10 13 20 16 3 -3 1 6 7 9 14 16
10 9 7 6 6 7 8 8 8 9 11 10 9 7 3 -2 -3 -1 1 2 4 5 6 8 8 8 9 8 6 14 18 9 -1 -4 -12 -17 -10 -1 3 6 13 16
8 6 5 5 7 9 10 11 12 10 9 8 6 5 3 -1 -2 -0 1 2 4 4 7 10 10 11 12 8 5 12 18 13 6 1 -2 -2 2 3 3 7 11 13
6 5 5 5 9 13 12 10 8 6 5 5 3 2 3 3 3 2 2 2 4 4 6 8 9 13 17 13 8 8 7 6 9 13 13 14 14 8 5 6 10 12
6 5 6 10 12 11 8 6 5 5 7 7 6 4 5 5 4 4 3 2 3 4 5 6 8 12 18 18 10 7 6 5 6 9 9 9 8 6 5 5 8 12
6 8 10 11 10 7 7 8 7 8 9 9 8 6 6 8 7 7 6 2 2 6 6 8 12 14 17 17 11 7 8 8 8 7 7 8 6 5 5 5 7 11
7 9 10 8 7 7 9 10 8 8 9 7 5 4 3 4 3 2 1 -1 2 7 9 11 15 18 18 13 9 10 12 12 9 6 7 8 6 6 7 5 6 11
8 8 7 4 4 5 5 5 6 6 6 4 4 3 1 0 -1 -2 -1 0 1 5 11 16 16 19 21 15 10 13 15 12 8 8 9 7 6 8 8 7 11 12
7 5 4 3 3 4 2 2 2 1 1 1 2 3 4 5 4 2 1 1 2 4 11 18 18 19 23 19 14 16 15 9 7 9 10 8 7 8 5 7 13 11
4 2 3 5 4 1 -1 -2 -2 -2 -1 -1 -1 1 3 2 1 2 2 1 0 3 11 19 20 18 20 17 13 13 11 7 7 10 11 9 7 6 6 9 12 12
1 3 4 3 1 -1 -1 0 0 0 1 1 1 1 2 0 -1 3 7 5 0 1 10 20 21 17 16 13 11 11 10 8 11 13 12 9 6 5 8 11 11 14
3 4 1 -1 1 3 4 4 4 3 2 1 1 2 3 1 -0 4 9 7 2 1 10 21 22 17 15 13 12 13 12 12 14 13 9 7 6 8 10 13 15 15
7 1 -3 -1 2 4 4 4 3 3 2 2 1 2 3 0 -1 4 8 6 2 3 12 21 21 17 16 14 13 12 11 12 13 11 7 6 8 11 13 14 15 13
6 -0 -3 -0 1 2 3 4 3 3 3 3 1 2 1 -1 0 4 5 4 3 6 15 20 18 16 15 11 8 8 9 10 11 10 7 8 12 15 15 15 13 9
3 2 0 0 0 0 1 2 3 3 2 2 1 2 0 -1 2 4 3 4 4 9 18 21 17 16 14 9 7 10 11 10 10 11 8 10 16 16 10 8 7 5
0 1 0 1 1 1 1 1 1 0 0 1 2 3 3 1 1 3 4 3 3 10 19 19 17 16 11 9 13 15 14 12 11 11 10 13 17 10 1 3 7 7
-1 -0 1 1 1 0 -0 0 1 2 1 1 2 3 2 1 1 3 3 1 4 13 19 18 16 13 9 12 18 17 14 13 11 11 15 16 9 0 1 9 12 10
1 0 -0 1 1 2 1 1 3 3 2 2 2 1 0 1 3 4 4 4 6 13 20 17 11 8 11 17 20 16 13 12 11 14 19 13 2 0 8 13 10 8

ECMWFNIL_500_avort_033.txt.gz
Vorticity
4 5 6 7 7 5 3 3 5 6 8 11 11 7 4 3 5 6 6 4 3 3 4 5 5 7 8 8 8 6 5 7 7 7 7 5 9 14 10 4 6 11
4 3 5 7 6 4 2 3 5 5 8 11 10 7 5 5 6 5 4 3 3 4 5 6 6 7 8 7 5 3 4 8 10 10 8 7 12 17 11 2 -0 2
5 4 5 5 4 4 3 3 5 7 9 11 10 7 5 6 6 5 3 3 5 6 7 7 6 7 8 6 4 3 4 7 10 10 8 6 10 17 14 -1 -7 -0
7 5 5 4 3 4 5 5 6 8 10 10 9 6 6 6 4 4 5 6 7 8 8 7 5 5 6 5 5 4 4 5 7 7 7 4 5 16 17 1 -6 0
13 11 9 8 8 8 7 7 8 11 13 10 7 6 6 6 3 4 6 7 7 8 7 6 4 3 3 3 4 5 5 4 5 6 7 7 6 12 16 9 1 -6
14 15 15 13 12 11 11 10 12 13 12 8 8 7 6 5 4 5 5 5 6 6 5 4 3 3 4 4 5 7 8 7 6 5 7 10 9 7 8 9 2 -11
15 16 16 15 14 16 16 16 13 11 9 8 7 6 5 5 5 5 4 4 3 2 2 3 5 5 6 6 7 8 9 11 10 7 6 10 12 8 4 4 2 -4
14 16 17 17 17 18 17 13 11 8 7 8 7 6 5 4 4 4 5 4 2 2 4 5 6 6 6 7 7 6 8 10 12 14 11 9 10 9 6 6 9 8
10 11 14 15 14 13 11 8 8 9 8 7 5 5 4 2 4 5 4 3 3 5 7 6 4 4 5 8 8 7 9 9 11 17 19 13 7 4 4 5 7 9
11 11 11 11 9 8 7 6 7 8 7 7 6 5 4 4 5 4 2 3 6 7 6 3 2 2 4 8 10 11 12 12 14 19 21 17 11 5 4 4 3 6
10 11 10 8 8 7 6 6 7 8 8 7 6 4 4 4 4 4 6 7 8 6 2 0 1 2 3 6 11 13 13 14 16 18 16 14 13 11 10 7 4 4
8 9 9 7 6 5 6 8 9 9 6 4 4 3 3 5 7 8 8 7 3 0 0 1 0 0 1 4 9 11 14 16 15 14 13 11 11 12 12 10 8 6
6 7 7 6 6 6 9 10 7 5 4 4 5 5 6 9 10 9 6 3 2 -0 0 1 1 1 1 3 7 10 14 17 15 14 15 12 10 11 11 10 8 8
7 7 6 6 9 10 9 6 4 4 6 6 7 9 10 10 7 6 5 4 2 -1 -2 1 4 5 2 3 7 9 12 15 13 15 18 15 14 14 11 8 7 9
7 7 7 10 12 9 6 5 5 6 7 9 10 8 6 4 2 2 3 3 2 0 -0 3 6 5 2 4 8 10 12 14 12 15 19 17 15 14 11 9 9 10
8 7 10 12 10 5 5 5 4 5 6 7 6 2 -1 -1 -0 1 2 3 5 4 3 5 6 4 2 6 10 11 13 15 13 13 14 13 13 14 13 13 13 11
8 9 12 11 7 4 4 3 2 4 4 2 -1 -3 0 2 0 0 1 2 4 3 2 4 7 4 2 5 9 13 15 15 14 12 10 10 12 14 16 14 12 10
9 11 13 10 5 3 2 3 4 3 0 -1 -1 0 3 3 1 1 1 2 2 1 0 3 5 4 2 2 7 14 17 16 14 12 9 8 9 13 15 12 9 8
11 13 13 8 4 3 3 4 4 2 1 1 1 3 2 1 1 1 1 2 2 2 2 2 2 3 2 1 5 15 19 17 14 13 9 7 8 12 13 10 7 7
12 12 11 6 3 2 3 4 3 2 3 4 2 2 2 2 2 1 1 3 3 2 3 1 0 2 3 1 5 15 19 16 13 11 8 6 7 10 13 11 8 8
10 9 7 4 3 3 2 1 2 1 2 2 2 3 2 2 1 0 1 2 3 2 1 -0 -0 2 4 6 8 14 18 16 11 8 7 6 7 11 15 13 8 9
10 8 8 5 4 4 2 -1 -0 1 1 1 1 1 1 0 1 2 2 2 2 1 0 0 1 3 7 8 7 11 17 17 11 7 6 7 11 15 15 13 10 10
9 5 6 6 4 2 1 0 1 0 -0 1 1 0 0 1 1 1 2 2 3 2 2 1 1 5 8 5 3 9 16 18 13 8 8 11 14 17 16 14 12 11
5 4 3 3 2 1 -0 0 1 1 1 1 0 0 1 1 1 2 2 1 2 3 5 4 2 7 7 2 4 11 15 16 14 11 13 17 17 16 14 13 12 11
2 3 2 0 0 0 -1 -2 -0 1 1 0 -0 1 2 1 1 2 1 1 2 3 4 4 5 9 8 4 6 11 12 14 15 15 16 17 15 12 12 13 15 16
2 -0 -1 1 2 0 -2 -2 -1 -1 -2 -1 0 -1 -0 1 -0 1 3 2 1 2 2 2 5 8 6 5 7 10 11 12 14 15 15 13 11 10 11 14 16 18

ECMWFNIL_500_avort_036.txt.gz
Vorticity
4 4 4 4 5 5 6 6 5 3 3 4 6 7 10 9 5 3 4 6 6 5 5 5 6 8 8 7 6 5 3 3 4 4 4 5 4 5 6 4 10 17
4 3 4 4 4 4 5 5 5 4 3 4 6 8 10 8 6 4 4 6 5 4 5 6 7 7 6 4 2 2 2 2 4 5 5 7 7 6 6 6 7 12
5 4 4 3 3 3 3 4 6 5 3 4 7 8 9 8 5 4 5 6 5 4 6 7 6 5 3 2 1 1 3 4 5 7 7 9 10 9 7 7 7 8
6 5 4 4 4 3 4 5 6 5 3 5 8 9 9 7 4 5 5 5 4 5 7 6 3 2 2 3 4 5 6 7 8 9 9 10 11 11 10 9 7 6
7 5 6 6 6 5 6 5 5 5 5 6 9 11 9 5 4 5 4 3 4 6 6 4 1 0 3 5 6 7 8 10 11 11 11 12 12 12 11 10 9 7
9 9 10 10 11 11 8 6 6 7 7 8 11 11 7 4 4 4 3 2 5 6 4 2 1 2 5 6 6 7 7 10 12 13 14 13 13 14 13 10 9 8
14 14 15 16 16 16 13 11 10 8 9 11 13 9 5 4 4 4 4 3 6 6 3 2 4 6 6 4 3 3 4 7 11 14 15 14 13 15 15 13 10 9
13 12 14 15 14 14 14 13 10 10 14 14 11 7 4 3 4 4 4 5 5 3 2 4 7 7 4 1 1 2 2 4 8 13 15 12 11 11 13 14 13 11
14 14 15 14 13 13 14 14 14 15 17 13 8 5 3 2 4 6 6 5 3 2 5 8 6 3 1 1 2 4 4 4 6 11 13 11 10 8 7 12 14 12
15 15 14 13 12 14 15 15 17 16 13 9 6 4 2 2 6 7 6 3 2 4 7 6 3 1 1 3 5 5 4 5 6 10 12 11 11 9 8 11 13 11
13 11 10 11 10 10 12 13 13 11 8 5 4 2 2 4 7 5 3 2 5 7 6 3 2 1 1 4 6 6 4 6 7 9 13 13 11 11 11 12 11 10
10 11 9 9 8 7 8 10 8 5 5 4 3 4 5 6 5 3 3 5 7 6 4 3 2 2 3 5 6 6 4 4 5 7 11 15 13 10 11 12 9 8
9 11 9 7 6 6 6 6 4 4 7 6 5 6 6 5 3 4 7 8 7 5 2 2 3 3 2 2 4 5 4 2 4 5 8 14 15 12 11 11 8 8
9 9 8 6 5 5 5 4 5 8 9 7 6 6 4 3 5 8 9 6 2 1 1 1 3 3 1 0 1 2 3 3 4 4 6 13 16 14 12 11 8 7
11 10 8 7 5 6 7 7 9 9 8 6 6 5 3 5 9 8 4 1 -0 0 1 1 3 2 1 1 2 1 2 4 6 7 8 12 17 16 13 11 9 6
9 10 10 10 10 10 9 9 10 9 7 6 5 4 6 8 8 3 -1 0 1 1 2 2 4 5 3 3 2 0 1 4 6 9 9 12 17 18 13 11 10 7
6 9 11 11 12 13 10 9 10 8 6 5 4 5 7 5 1 -1 1 4 3 1 2 2 2 3 3 3 2 1 1 3 6 9 9 9 14 17 16 13 9 6
8 9 12 13 14 15 12 9 9 7 5 5 4 5 4 0 -1 1 2 2 1 1 1 1 1 2 2 2 3 2 2 3 4 7 8 7 10 15 17 14 10 8
11 9 11 13 15 16 13 8 7 7 5 4 4 3 1 -2 -1 2 2 1 2 2 1 1 1 2 2 3 3 4 4 5 6 7 8 7 8 12 14 13 12 11
11 11 13 13 12 13 11 7 7 8 5 3 3 2 0 1 2 2 2 2 2 1 1 2 2 0 1 3 3 3 4 3 3 5 8 8 7 8 9 11 12 12
9 12 14 13 12 11 10 9 9 7 4 3 4 2 1 2 2 1 2 1 0 1 3 1 -0 -0 2 2 1 1 4 4 2 4 7 6 7 8 8 9 11 11
8 10 12 14 14 12 11 12 10 5 4 4 2 1 2 1 0 1 1 -0 -0 1 2 -0 -1 1 2 3 0 -3 -0 4 4 4 6 5 6 9 8 8 9 10
7 7 8 13 16 14 14 13 9 4 4 4 1 0 0 -0 1 1 -0 1 1 -1 0 2 1 1 2 5 4 1 13 26 21 10 6 5 5 9 9 6 7 8
10 7 7 11 14 16 15 11 7 5 4 3 1 0 1 1 1 0 0 2 -0 -2 2 4 0 2 6 10 10 13 29 46 37 15 5 3 4 8 9 7 7 8
12 7 6 8 10 15 17 11 7 5 3 3 0 -1 1 1 -1 -0 1 0 -2 0 5 3 1 8 10 7 10 13 15 23 21 11 6 5 5 8 10 8 8 8
10 5 7 7 7 12 13 9 7 3 -0 0 0 0 1 -0 -2 -1 -1 -1 1 4 4 1 4 10 5 -2 6 13 8 7 9 7 6 6 6 9 11 9 8 9